Regional Weather Roundup
Issued by NWS

Home | Current Version | Previous Version | Graphics & Text | Print | Product List | Glossary On
Versions: 1 2 3 4 5 6 7 8 9 10 11 12 13 14 15 16 17 18 19 20 21 22 23 24 25 26 27 28 29 30 31 32 33 34 35 36 37 38 39 40 41 42 43 44 45 46 47 48 49 50
000
ASUS43 KOAX 280210
RWRNE

WEATHER ROUNDUP FOR NEBRASKA
NATIONAL WEATHER SERVICE OMAHA NE
900 PM CDT WED AUG 27 2014

NOTES: SATELLITE DATA IS BEING USED TO AUGMENT CLOUD COVER ABOVE
       12000 FEET.
       "FAIR" INDICATES FEW OR NO CLOUDS BELOW 12,000 FEET WITH NO
       SIGNIFICANT WEATHER AND/OR OBSTRUCTIONS TO VISIBILITY.

  * THESE STATIONS DO NOT REPORT WEATHER SUCH AS RAIN...SNOW OR FOG.

NEZ001>004-019>022-054>056-280300-
NEBRASKA PANHANDLE

CITY           SKY/WX    TMP DP  RH WIND       PRES   REMARKS
SCOTTSBLUFF    MOCLDY    65  61  87 W6        30.07F
ALLIANCE       MOCLDY    65  63  93 NW3       30.06R
CHADRON        CLOUDY    66  64  93 N6        30.06R
KIMBALL        CLOUDY    64  55  72 NW10      30.10F
SIDNEY         CLOUDY    68  59  73 N12       30.10R
$$

NEZ057>060-069>072-079>082-280300-
SOUTHWEST NEBRASKA

CITY           SKY/WX    TMP DP  RH WIND       PRES   REMARKS
NORTH PLATTE   CLOUDY    67  65  93 E8        30.03S
IMPERIAL       CLOUDY    69  65  86 SE18G29   30.00R
LEXINGTON      CLOUDY    71  68  91 SE8       30.03S
MCCOOK         CLOUDY    69  66  90 SE14G22   30.00S
OGALLALA       CLOUDY    67  64  90 SE13G20   30.03R THUNDER
$$

NEZ005>010-023>029-035>040-094-280300-
NORTH CENTRAL NEBRASKA

CITY           SKY/WX    TMP DP  RH WIND       PRES   REMARKS
VALENTINE      LGT RAIN  70  68  93 CALM      30.05R
AINSWORTH      CLOUDY    68  66  91 CALM      30.05S
BROKEN BOW     LGT RAIN  71  69  93 SE8       30.04R
O`NEILL        CLOUDY    70  69  97 E7        30.04F
ORD            CLOUDY    72  69  90 SE3       30.02S
THEDFORD       CLOUDY    71  67  85 SE8       30.05S
$$

NEZ041-046>049-061>064-073>077-083>087-280300-
SOUTH CENTRAL NEBRASKA

CITY           SKY/WX    TMP DP  RH WIND       PRES   REMARKS
GRAND ISLAND   LGT RAIN  73  69  87 SE7       30.04R
AURORA         LGT RAIN  72  72 100 SE6       30.05R
HASTINGS       LGT RAIN  73  68  84 S6        30.04R
HEBRON         CLOUDY    75  70  85 CALM      30.02S
HOLDREGE       CLOUDY    68  65  90 SE10      30.02F
KEARNEY *      CLOUDY    70  66  88 SE12      30.04S
YORK           CLOUDY    72 N/A N/A SE6       30.04S
$$

NEZ011>018-030>034-042>045-280300-
NORTHEAST NEBRASKA

CITY           SKY/WX    TMP DP  RH WIND       PRES   REMARKS
NORFOLK        CLOUDY    70  68  93 E9        30.05R
ALBION         CLOUDY    71  68  89 E8        30.05R
BLAIR          CLOUDY    71  69  92 E7        30.05S
FREMONT        CLOUDY    72  69  90 E6        30.06R
TEKAMAH        CLOUDY    71  68  90 E5        30.05S
WAYNE          LGT RAIN  69  68  96 E8        30.07R
$$

NEZ050>053-065>068-078-088>093-280300-
SOUTHEAST NEBRASKA

CITY           SKY/WX    TMP DP  RH WIND       PRES   REMARKS
LINCOLN        CLOUDY    73  71  93 NE3       30.04S
OMAHA EPPLEY   CLOUDY    73  69  87 SE9       30.05R
BEATRICE       CLOUDY    73  72  95 E3        30.03R
FALLS CITY     CLOUDY    75  72  90 E7        30.03S
NEBRASKA CITY  CLOUDY    72  72 100 E6        30.05S
PLATTSMOUTH    LGT RAIN  72  69  90 E6        30.06S
$$

NEZ044-045-051>053-067-280300-
OMAHA AREA

CITY           SKY/WX    TMP DP  RH WIND       PRES   REMARKS
OMAHA EPPLEY   CLOUDY    73  69  87 SE9       30.05R
BLAIR          CLOUDY    71  69  92 E7        30.05S
FREMONT        CLOUDY    72  69  90 E6        30.06R
MILLARD        CLOUDY    74  70  89 E3        30.04F
OFFUTT AFB     CLOUDY    73  73 100 E7        30.05R
PLATTSMOUTH    LGT RAIN  72  69  90 E6        30.06S
WAHOO          CLOUDY    72  68  88 E5        30.05S
$$



USA.gov is the U.S. government's official web portal to all federal, state and local government web resources and services.